This is the latest recevied weather packets stored in our database for station/object NK7I. If no packets are shown the sender has not sent any weather packets the latest 10 day(s).
| Time | Temp. | Humidity | Pressure | Rain* | Wind** | Luminosity | Snow |
|---|---|---|---|---|---|---|---|
| 1777821682 | 11.67° C | 70% | 1015.1 hPa | 0 mm | - | 533 W/m² | - |
| 1777821383 | 11.11° C | 73% | 1015.1 hPa | 0 mm | - | 587 W/m² | - |
| 1777821082 | 11.11° C | 75% | 1015.1 hPa | 0 mm | - | 601 W/m² | - |
| 1777820782 | 10.56° C | 78% | 1015.1 hPa | 0 mm | - | 578 W/m² | - |
| 1777820484 | 10° C | 76% | 1015.2 hPa | 0 mm | - | 555 W/m² | - |
| 1777820182 | 9.44° C | 77% | 1015.1 hPa | 0 mm | - | 533 W/m² | - |
| 1777819882 | 8.89° C | 78% | 1015.1 hPa | 0 mm | - | 508 W/m² | - |
| 1777819582 | 7.78° C | 82% | 1015.2 hPa | 0 mm | - | 457 W/m² | - |
| 1777819282 | 7.22° C | 83% | 1015.2 hPa | 0 mm | - | 185 W/m² | - |
| 1777818982 | 6.67° C | 84% | 1015.2 hPa | 0 mm | - | 98 W/m² | - |
| 1777818683 | 6.67° C | 85% | 1015.2 hPa | 0 mm | - | 139 W/m² | - |
| 1777818382 | 6.11° C | 85% | 1015.3 hPa | 0 mm | - | 77 W/m² | - |
| 1777818082 | 6.11° C | 86% | 1015.3 hPa | 0 mm | - | 111 W/m² | - |
| 1777817782 | 5.56° C | 86% | 1015.2 hPa | 0 mm | - | 137 W/m² | - |
| 1777817482 | 5.56° C | 87% | 1015.3 hPa | 0 mm | - | 139 W/m² | - |
| 1777817182 | 5° C | 87% | 1015.2 hPa | 0 mm | - | 49 W/m² | - |
| 1777816882 | 5° C | 87% | 1015.2 hPa | 0 mm | - | 44 W/m² | - |
| 1777816582 | 5° C | 87% | 1015.2 hPa | 0 mm | - | 39 W/m² | - |
| 1777816282 | 5° C | 88% | 1015.2 hPa | 0 mm | - | 37 W/m² | - |
| 1777815982 | 5° C | 87% | 1015.3 hPa | 0 mm | - | 35 W/m² | - |
| 1777815682 | 4.44° C | 87% | 1015.2 hPa | 0 mm | - | 33 W/m² | - |
| 1777815382 | 4.44° C | 88% | 1015.2 hPa | 0 mm | - | 33 W/m² | - |
| 1777815082 | 4.44° C | 88% | 1015.2 hPa | 0 mm | - | 33 W/m² | - |
| 1777814782 | 4.44° C | 88% | 1015.3 hPa | 0 mm | - | 30 W/m² | - |
| 1777814482 | 4.44° C | 87% | 1015.3 hPa | 0 mm | - | 28 W/m² | - |
* Rain latest hour (hover to see other rain measurements)
** Current wind speed in m/s (hover to see current wind gust speed)